This demonstration page uses our WeatherBlox Daily Observations layout. Learn more.

Left ArrowRight Arrow

39.12711, -84.51439

Hourly Observations for August 13, 2022

Temp ( °F °C ) Dew Point ( °F °C ) Humidity (%) Winds ( mph kmh ) Pressure ( in mb ) Visibility ( mi km ) Precip ( " mm )
12:53 am 00:53 Clear 60 15.6 58 14.4 93 93 NE 3 6 30.17 1022 10 16 0.00 0.00
1:53 am 01:53 Clear 58 14.4 57 13.9 97 97 Calm 30.16 1021 10 16 0.00 0.00
2:53 am 02:53 Clear 59 15 58 14.4 96 96 Calm 30.16 1021 8 13 0.00 0.00
3:50 am 03:50 Clear with Mist and Fog 57 14 57 14 100 100 Calm 30.17 1022 1 1 0.00 0.00
4:00 am 04:00 Clear with Fog 58 14.4 57 13.9 97 97 Calm 30.17 1022 0 0 0.00 0.00
4:07 am 04:07 Clear with Mist and Fog 57 13.9 57 13.9 100 100 Calm 30.17 1022 1 2 0.00 0.00
4:16 am 04:16 Clear with Mist and Fog 57 13.9 57 13.9 100 100 Calm 30.17 1022 4 6 0.00 0.00
4:51 am 04:51 Clear with Mist and Fog 55 13 55 13 100 100 Calm 30.17 1022 2 3 0.00 0.00
4:53 am 04:53 Clear with Mist and Fog 56 13.3 56 13.3 100 100 Calm 30.16 1022 1 2 0.00 0.00
5:01 am 05:01 Clear with Fog 56 13.3 56 13.3 100 100 Calm 30.18 1022 1 1 0.00 0.00
5:15 am 05:15 Clear with Mist and Fog 57 13.9 57 13.9 100 100 Calm 30.17 1022 3 5 0.00 0.00
5:28 am 05:28 Clear with Mist and Fog 56 13.3 55 12.8 97 97 Calm 30.18 1022 2 3 0.00 0.00
5:45 am 05:45 Clear with Mist and Fog 56 13.3 56 13.3 100 100 Calm 30.18 1022 3 5 0.00 0.00
5:53 am 05:53 Clear with Mist and Fog 56 13.3 56 13.3 100 100 Calm 30.17 1022 3 5 0.00 0.00
6:01 am 06:01 Clear with Mist and Fog 56 13.3 55 12.8 97 97 Calm 30.18 1022 2 3 0.00 0.00
6:21 am 06:21 Clear with Mist and Fog 56 13.3 55 12.8 97 97 Calm 30.18 1022 4 6 0.00 0.00
6:53 am 06:53 Sunny with Mist and Fog 56 13.3 55 12.8 97 97 Calm 30.17 1022 4 6 0.00 0.00
7:53 am 07:53 Sunny 59 15 58 14.4 96 96 Calm 30.18 1022 8 13 0.00 0.00
8:53 am 08:53 Sunny 64 17.8 59 15 84 84 NNE 3 6 30.18 1022 10 16 0.00 0.00
9:53 am 09:53 Sunny 68 20 61 16.1 78 78 Calm 30.17 1022 10 16 0.00 0.00
10:53 am 10:53 Sunny 75 23.9 60 15.6 60 60 VRB 3 6 30.18 1022 10 16 0.00 0.00
11:53 am 11:53 Sunny 77 25 57 13.9 50 50 VRB 5 7 30.16 1021 10 16 0.00 0.00
12:53 pm 12:53 Sunny 78 25.6 55 12.8 45 45 VRB 6 9 30.15 1021 10 16 0.00 0.00
1:53 pm 13:53 Sunny 80 26.7 58 14.4 47 47 S 8 13 30.14 1021 10 16 0.00 0.00
2:53 pm 14:53 Sunny 80 26.7 55 12.8 42 42 VRB 5 7 30.11 1020 10 16 0.00 0.00
3:53 pm 15:53 Sunny 81 27.2 58 14.4 45 45 S 8 13 30.09 1019 10 16 0.00 0.00
4:53 pm 16:53 Sunny 81 27.2 57 13.9 44 44 S 5 7 30.06 1018 10 16 0.00 0.00
5:53 pm 17:53 Sunny 78 25.6 57 13.9 48 48 SE 5 7 30.05 1018 10 16 0.00 0.00
6:53 pm 18:53 Partly Cloudy 74 23.3 63 17.2 69 69 SE 3 6 30.05 1018 10 16 0.00 0.00
7:53 pm 19:53 Sunny 71 21.7 66 18.9 84 84 Calm 30.03 1017 10 16 0.01 0.13
8:53 pm 20:53 Mostly Clear 70 21.1 66 18.9 87 87 S 3 6 30.03 1017 10 16 0.00 0.00
9:53 pm 21:53 Mostly Clear 69 20.6 65 18.3 87 87 Calm 30.05 1018 10 16 0.00 0.00
10:53 pm 22:53 Mostly Cloudy 68 20 64 17.8 87 87 Calm 30.05 1018 10 16 0.00 0.00
11:53 pm 23:53 Cloudy 68 20 64 17.8 87 87 Calm 30.05 1018 10 16 0.00 0.00

Powered by AerisWeather